www.pogodaiklimat.ru

Погода и климат >> Архив погоды >> Индия >> Бихар >> Гая


ПОГОДА в Гае

  • Прогноз погоды в Гае
  • Монитор погоды в Гае

АРХИВ ПОГОДЫ в Гае

Время (UTC), дата Ветер
(напр.,м/с)
 
Видим.   Явления Облачность Т
(С)
Тd
(С)
f
(%)
Тe
(С)
Тes
(С)
Комфортность P
(гПа)
Po
(гПа)
Тmin
(С)
Tmax
(С)
R
(мм)
R24
(мм)
S
(см)
21 12.05 СЗ 3 2000 м мгла ясно +27.2 +17.7 56 +31 +31 душно 1002.5 989.4
00 13.05 Ю 1 2000 м мгла ясно +27.4 +15.3 48 +30 +30 жарко 1003.4 990.3
03 13.05 З 3 2000 м мгла 9/5 600 м
[Sc diur, vesp Ac trans]
+32.0 +16.1 38 +35 +37 очень
душно
1006.3 993.3 +26.4
06 13.05 СЗ 3 4000 м мгла 6/4 600 м
[Sc diur, vesp Ac trans]
+36.6 +17.1 32 +40 +49 очень
душно
1005.7 992.9
09 13.05 СВ 2 4000 м мгла 5/3 600 м
[Sc Ac trans]
+37.4 +21.3 39 +44 +52 опасность
перегрева
1002.7 990.0
12 13.05 СВ 2 4000 м мгла ясно +37.2 +19.2 35 +42 +43 опасность
перегрева
1001.1 988.4 +37.9
15 13.05 штиль 0 2000 м мгла ясно +31.0 +19.8 51 +37 +37 очень
душно
1002.1 989.1
18 13.05 Ю 2 2000 м мгла ясно +27.8 +18.1 56 +33 +33 очень
душно
1003.1 990.0
21 13.05 ЮВ 1 2000 м мгла ясно +26.4 +18.2 61 +31 +31 душно 1002.1 988.9
00 14.05 В 1 2000 м мгла 9/5 600 м
[Sc Ac trans]
+25.8 +19.8 69 +31 +31 очень
душно
1003.4 990.2
03 14.05 ЮЗ 2 2000 м мгла 8/4 600 м
[Sc Ac trans]
+33.0 +19.4 45 +39 +42 очень
душно
1005.2 992.3 +24.7
06 14.05 З 2 2000 м мгла 5/3 600 м
[Sc Ac trans]
+35.8 +18.8 37 +40 +53 опасность
солнечного
удара
1005.1 992.3
09 14.05 З 2 2000 м мгла 3/3 600 м
[Sc]
+41.6 +14.9 21 +42 +52 опасность
перегрева
1001.7 989.2
12 14.05 СЗ 2 2000 м мгла 6/5 600 м
[Sc diur, vesp Ac trans]
+38.4 +14.5 24 +39 +40 очень
душно
1000.4 987.8 +41.8
15 14.05 штиль 0 2000 м мгла ясно +31.8 +18.2 44 +36 +36 очень
душно
1002.2 989.3
18 14.05 В 3 2000 м мгла ясно +30.8 +18.4 48 +36 +36 очень
душно
1003.4 990.4
21 14.05 В 2 2000 м мгла 3/3 600 м
[Sc]
+28.2 +17.8 53 +33 +33 очень
душно
1002.8 989.7
00 15.05 В 2 2000 м мгла 3/3 600 м
[Sc]
+26.0 +17.8 61 +30 +30 душно 1003.3 990.1
03 15.05 З 1 2000 м пыль ясно +33.4 +17.2 38 +37 +49 очень
душно
1005.8 992.9 +25.2
06 15.05 З 3 4000 м пыль 4/4 600 м
[Sc]
+39.8 +15.3 24 +41 +52 опасность
перегрева
1004.8 992.2
09 15.05 З 3 4000 м пыль 6/6 600 м
[Sc diur, vesp]
+41.2 +14.3 21 +42 +46 опасность
перегрева
1002.3 989.7
12 15.05 З 2 4000 м мгла 3/3 600 м
[Sc]
+39.6 +16.4 26 +42 +42 опасность
перегрева
1001.3 988.7 +41.3
15 15.05 В 1 2000 м мгла ясно +34.2 +19.0 41 +39 +39 очень
душно
1003.8 990.9
18 15.05 штиль 0 2000 м мгла ясно +31.6 +20.2 51 +38 +38 очень
душно
1004.4 991.4
21 15.05 З 3 2000 м мгла ясно +30.0 +19.6 54 +38 +38 очень
душно
1003.4 990.4
00 16.05 В 1 2000 м мгла 3/3 600 м
[Sc]
+26.0 +20.7 73 +33 +33 очень
душно
1004.9 991.7
03 16.05 Ю 2 2000 м мгла ясно +33.4 +21.6 50 +41 +52 опасность
перегрева
1006.4 993.5 +25.1
06 16.05 СЗ 3 4000 м мгла 4/4 600 м
[Sc]
+39.6 +16.8 26 +42 +52 опасность
перегрева
1006.3 993.6
09 16.05 З 6 4000 м мгла 1/1 600 м
[Sc]
+41.6 +16.8 24 +44 +49 опасность
перегрева
1003.4 990.8
12 16.05 СЗ 2 4000 м мгла ясно +40.6 +12.7 19 +40 +41 очень
жарко
1002.2 989.6 +41.8
15 16.05 С 1 2000 м мгла ясно +32.4 +15.8 37 +35 +35 душно 1003.6 990.7
18 16.05 штиль 0 2000 м мгла ясно +29.2 +14.3 40 +31 +31 жарко 1004.3 991.2
21 16.05 штиль 0 2000 м мгла ясно +27.4 +15.3 48 +30 +30 жарко 1003.4 990.3
00 17.05 штиль 0 2000 м мгла ясно +25.6 +16.6 58 +29 +29 душно 1004.1 990.9
03 17.05 ЮЗ 3 2000 м мгла 4/1 600 м
[Sc Ac trans]
+35.4 +16.7 33 +38 +44 очень
душно
1005.5 992.7 +24.6
06 17.05 З 5 4000 м мгла 1/1 600 м
[Sc]
+40.8 +15.1 22 +42 +52 опасность
перегрева
1004.6 992.0
09 17.05 СЗ 5 4000 м мгла 6/6 600 м
[Sc diur, vesp]
+42.4 +13.8 19 +43 +46 опасность
перегрева
1001.6 989.1
12 17.05 СЗ 3 2000 м мгла ясно +40.0 +10.5 17 +39 +40 очень
жарко
1000.4 987.8 +42.6
15 17.05 штиль 0 2000 м мгла ясно +33.4 +13.7 30 +34 +34 очень
жарко
1002.1 989.2
18 17.05 ЮЗ 1 2000 м мгла ясно +30.4 +14.7 38 +32 +32 жарко 1003.4 990.4
21 17.05 Ю 1 2000 м мгла ясно +29.0 +16.9 48 +33 +33 очень
душно
1004.2 991.1
00 18.05 штиль 0 2000 м мгла ясно +27.0 +15.6 50 +30 +30 душно 1003.5 990.3
03 18.05 штиль 0 2000 м мгла ясно +36.0 +13.5 26 +36 +51 опасность
солнечного
удара
1005.1 992.3 +25.6
06 18.05 З 3 2000 м мгла ясно +39.4 +14.2 23 +40 +58 опасность
солнечного
удара
1004.5 991.8
09 18.05 З 3 4000 м мгла ясно +42.2 +9.5 14 +40 +52 опасность
солнечного
удара
1001.7 989.2
12 18.05 СЗ 2 4000 м мгла 6/6 600 м
[Sc diur, vesp]
+40.4 +9.5 16 +39 +39 очень
жарко
1000.5 987.9 +42.4
15 18.05 С 1 2000 м мгла ясно +36.4 +13.7 26 +37 +37 очень
жарко
1003.0 990.2
18 18.05 С 1 2000 м мгла ясно +33.8 +12.9 28 +34 +34 очень
жарко
1004.4 991.5
21 18.05 С 1 2000 м мгла ясно +32.0 +13.0 31 +33 +33 жарко 1003.7 990.7
00 19.05 штиль 0 2000 м мгла ясно +26.4 +19.0 64 +32 +32 очень
душно
1005.3 992.1
03 19.05 З 2 2000 м мгла ясно +34.2 +14.9 31 +36 +46 душно 1006.7 993.8 +24.6
06 19.05 З 4 4000 м мгла ясно +38.0 +12.9 22 +38 +52 опасность
солнечного
удара
1006.3 993.6
09 19.05 СЗ 3 4000 м пыль 5/5 600 м
[Sc]
+40.0 +11.1 18 +39 +45 очень
жарко
1003.7 991.1
12 19.05 СЗ 3 4000 м пыль 5/5 600 м
[Sc]
+40.0 +7.4 14 +38 +38 очень
жарко
1002.9 990.3 +41.5
15 19.05 СЗ 1 2000 м мгла 3/3 600 м
[Sc]
+34.6 +14.2 29 +36 +36 душно 1005.5 992.6
18 19.05 штиль 0 2000 м мгла ясно +29.4 +14.2 39 +31 +31 жарко 1007.1 994.0

 

Местоположение метеостанции Гая (Бихар, Индия): широта 24.75 долгота 84.95 высота над уровнем моря 116 м.

В архиве по умолчанию представлена погода в Гае за последнюю неделю. Архивные данные за месяц целиком и за предыдущие месяцы, начиная с января 2011 года, Вы можете получить, выбрав интересующий диапазон дат из раскрывающегося списка и нажав кнопку "Ввод!".


*Определитесь, кто Вы:
робот инопланетянин человек

Внимание! Время в таблицах - всемирное. Для получения местного времени необходимо прибавить поправку, которая равна 5.5 ч.

Смотрите также архив погоды в соседних городах и на ближайших метеорологических станциях:

Погода в Дехри (Бихар, Индия) (80 км)
Погода в Патне (Бихар, Индия) (96 км)
Погода в Чхапре (Бихар, Индия) (117 км)
Погода в Далтонгандже (Джаркханд, Индия) (118 км)
Погода в Гхазипуре (Уттар-Прадеш, Индия) (158 км)
Погода в Ранчи (Джаркханд, Индия) (163 км)
Погода в Варанаси (Уттар-Прадеш, Индия) (204 км)
Погода в Бхагалпуре (Бихар, Индия) (209 км)
Погода в Пурулии (Западная Бенгалия, Индия) (217 км)
Погода в Варанаси аэропорту (Уттар-Прадеш, Индия) (224 км)

Пояснения к столбцам:

Ветер - указаны скорость ветра в м/с - средняя за 10 мин, порывы в срок и между сроками (в фигурных скобках) и направление, откуда дует ветер: С - северный, СВ - северо-восточный, В - восточный, ЮВ - юго-восточный, Ю - южный, ЮЗ - юго-западный, З - западный, СЗ - северо-западный.
Видимость - горизонтальная дальность видимости в метрах или километрах. При видимости от 1 до 10 км при отсутствии осадков обычно наблюдается дымка, при ухудшении видимости до 1 км и менее - туман. В сухую погоду видимость может ухудшаться дымом, пылью или мглою.
Явления - указаны атмосферные явления, наблюдавшиеся в срок или в последний час перед сроком; фигурными скобками обозначены явления, наблюдавшиеся между сроками (за 1-3 часа до срока); квадратными скобками обозначены град или гололедные отложения с указанием их диаметра в мм.
Облачность - указаны через наклонную черту общая и нижняя облачность в баллах и высота нижней границы облаков в метрах; квадратными скобками обозначены формы облаков: Ci - перистые, Cs - перисто-слоистые, Cc - перисто-кучевые, Ac - высококучевые, As - высокослоистые, Sc - слоисто-кучевые, Ns - слоисто-дождевые, Cu - кучевые, Cb - кучево-дождевые. Подробнее классификацию облаков см. в Атласе облаков (PDF).
T - Температура воздуха - температура, измеренная на высоте 2 м над землей.
Td - Температура точки росы - температура, при понижении до которой содержащийся в воздухе водяной пар достигнет насыщения.
f - Относительная влажность воздуха - влажноcть воздуха, измеренная на высоте 2 м над землей.
Te - Эффективная температура - температура, которую ощущает одетый по сезону человек в тени. Характеристика душности погоды. При расчете учитывается влияние влажности воздуха и скорости ветра на теплоощущения человека.
Tes - Эффективная температура на солнце - температура, которую ощущает человек, с поправкой на солнечный нагрев. Характеристика знойности погоды. Зависит от высоты солнца над горизонтом, облачности и скорости ветра. Ночью, в пасмурную погоду, а также при ветре 12 м/с и более поправка равна нулю.
P - Атмосферное давление - приведенное к уровню моря атмосферное давление.
Po - Атмосферное давление - измеренное на уровне метеостанции атмосферное давление.
Tmin - Минимальная температура - минимум температуры воздуха на высоте 2 м над землей.
Tmax - Максимальная температура - максимум температуры воздуха на высоте 2 м над землей.
R - Количество осадков - Количество выпавших осадков за период времени, мм. При наведении курсора мыши на число - период времени, за который выпало указанное количество осадков.
R24 - Количество осадков - Количество выпавших осадков за 24 часа, мм.
S - Снежный покров - Высота снежного покрова, см. При наведении курсора мыши на число - состояние снежного покрова и степень покрытия местности в баллах.